Zurück zum Katalog

STARLINK-35585

AktivKommunikationVLEO
NORAD 66170·PAYLOAD·🇺🇸 United States

Gestartet Oct 25, 2025 von Cape Canaveral Space Force Station

Loading…

Nächste Überflüge (nächste 24 Stunden)

TLE

AktuellSource: CelesTrak SupGP

Epoche: Sep 14, 2026, 22:49 UTC

1 66170C 25240AA  26257.95118056  .00044010  00000+0  13002-2 0  2573
2 66170  53.1569 259.7491 0001268 100.6360 162.8408 15.34369616    15

Verfolge STARLINK-35585 in Echtzeit mit AllMySat

Download on the App Store